Torna al catalogo

STARLINK-34954

AttivoComunicazioniSSO
NORAD 65275·PAYLOAD·🇺🇸 United States

Lanciato Aug 22, 2025 da Vandenberg Space Force Base

Loading…

Prossimi Passaggi (prossime 24 ore)

TLE

AggiornatoSource: CelesTrak SupGP

Epoca: Sep 14, 2026, 22:55 UTC

1 65275C 25184C   26257.95534722  .00038457  00000+0  11944-2 0  2578
2 65275  97.2826 305.9923 0000813 100.3126 277.6771 15.33404282    17

Traccia STARLINK-34954 in tempo reale con AllMySat

Download on the App Store